Погода в Константиновске

Погода в Константиновске : погода сейчас, прогноз погоды и архив. Всё, что Вы хотите узнать о погоде в Константиновске!

Поиск расширенной информации на нашем сайте:

Другие новости

Новости СМИ2

Главная страница сайта

Новости сайта

03.07.2017

Напоминаем, что на нашем специализированном сайте Метеоцентр.Азия вы можете получить высокодетализированные автоматические прогнозы погоды по пунктам России, СНГ и мира в авиационном формате (включающие направление и скорость ветра, видимость, явления погоды, количество и форму облачности, нижнюю и верхнюю границу облачности).


Погода в Константиновске - сегодня

Время (UTC), дата Ветер
(°,м/с) 
Видим.   Явления Облачность Т
(°С)
Тd
(°С)
f(%) Тe
(°С)
Pmin
(гПа)
dP
(гПа)
Po
(мм)
O2
(г/м3)
Тmin Tmax R s Состояние
почвы
18 20.04.18 330 (СЗ) 3{11}  4000 м  слаб. ливневой дождь  8/8 600 м кучево-дожд. 
[Cb cap]
+9.3 +7.5 89 +9  1008.3  2.6  751  291           
21 20.04.18 350 (С) 4000 м  дымка{ливн. осадки}  8/8 600 м кучево-дожд. 
[Cb calv]
+9.1 +6.9 86 +9  1009.8  1.4  752  292           
00 21.04.18 350 (С) 10 км  {ливн. осадки}  8/8 600 м 
[Cu Sc]
+8.2 +5.5 83 +8  1010.9  1.1  752  293           
03 21.04.18 340 (С) 10 км    ясно 
+5.8 +3.9 88 +7  1012.5  1.6  754  297  +5.7    0.0    влажная 
06 21.04.18 350 (С) 10 км    ясно 
+13.1 +5.2 59 +14  1013.8  1.5  755  289           
09 21.04.18 330 (СЗ) 10 км    6/6 600 м 
[Cu med, cong]
+15.2 +2.8 43 +16  1013.7  -0.1  755  288           
15 21.04.18 220 (ЮЗ) 10 км    8/0 средняя, верхняя 
[Ac trans|Ci sp]
+16.1 +0.7 35 +17  1010.2  -1.7  752  286    +17.7       
18 21.04.18 250 (З) 10 км    6/0 средняя, верхняя 
[Ac trans|Ci sp]
+12.5 +2.1 49 +12  1009.6  -0.7  752  289           
21 21.04.18 250 (З) 10 км    ясно 
+9.6 +4 68 +9  1008.3  -1.4  751  292           
00 22.04.18 230 (ЮЗ) 4{10}  10 км    ясно 
+9.2 +1.7 59 +8  1005  -3.2  748  291           
03 22.04.18 250 (З) 5-10{11}  10 км    8/8 600 м 
[Cu Sc]
+11.2 +3.5 59 +10  1002.9  -2  747  288  +9        сухая 
06 22.04.18 250 (З) 5-11{11}  10 км  {ливн. осадки}  8/6 600 м средняя 
[Cu Sc|Ac trans]
+12.2 +7.9 75 +11  1003.3  0.4  747  287           
09 22.04.18 250 (З) 4{11}  10 км    8/6 600 м средняя 
[Cu med, cong|Ac trans]
+17.3 +6.6 49 +18  1002.6  -0.5  747  282           
12 22.04.18 310 (СЗ) 5-11{13}  10 км    6/6 600 м 
[Cu med, cong]
+20.8 +0 25 +21  1001.8  -0.8  746  279           
15 22.04.18 310 (СЗ) 6-11  10 км    6/6 600 м 
[Cu med, cong]
+17.4 -2.6 25 +17  1001.8  746  283    +20.8     
18 22.04.18 310 (СЗ) 4{11}  10 км    8/0 средняя 
[Ac trans]
+14 -2.7 31 +14  1005.1  3.1  748  287           
21 22.04.18 320 (СЗ) 3{12}  10 км    6/0 средняя 
[Ac trans]
+11.5 +0.3 46 +11  1006.6  1.5  749  290           
00 23.04.18 300 (СЗ) 10 км    6/0 средняя 
[Ac trans]
+8.9 -0.4 52 +8  1007.5  0.8  750  293           
03 23.04.18 320 (СЗ) 10 км    6/0 средняя, верхняя 
[Ac trans|Ci sp]
+5.4 +0.2 69 +5  1008.7  1.2  751  297  +5.3        сухая 
06 23.04.18 320 (СЗ) 10 км    8/6 600 м средняя 
[Cu Sc|Ac trans]
+10.7 +2.9 58 +10  1009.7  1.1  752  291           
12 23.04.18 340 (С) 3-11{12}  10 км    6/6 600 м 
[Cu Sc]
+15 +1.2 39 +15  1010.6  0.5  752  287           
15 23.04.18 350 (С) 2{12}  10 км    5/5 600 м 
[Sc]
+12.3 -1.3 39 +13  1012.5  1.9  754  291    +15       
18 23.04.18 020 (С) 10 км    ясно 
+4.5 -2.9 59 +4  1015.9  3.1  756  300           
21 23.04.18 030 (СВ) 10 км    4/0 верхняя 
[Ci sp]
+2 -4.6 62 +1  1017.4  1.4  757  303           
00 24.04.18 010 (С) 10 км    ясно 
-0.9 -5.1 73 -2  1018.3  0.8  758  307           
Время (UTC), дата Ветер
(°,м/с) 
Видим.   Явления Облачность Т
(°С)
Тd
(°С)
f(%) Тe
(°С)
Pmin
(гПа)
dP
(гПа)
Po
(мм)
O2
(г/м3)
Тmin Tmax R s Состояние
почвы

Для получения пояснительной информации подведите курсор к названию столбца.

ПОГОДА в Константиновске - архив

Всё, что Вы хотите узнать о погоде в Константиновске - удобно и подробно!

Выберите нужную дату (начиная с 1 января 2015* года) и нажмите кнопку "Найти".
Будут отображены архивные сводки погоды по пункту Константиновск, начиная с указанной даты.


Отображать данные в формате CSV (для использования в таблицах Excel)


Внимание! Наш архив погоды предназначен исключительно для личного некоммерческого использования в познавательных целях. Если Вам необходимы официальные справки о состоянии погоды (для производственных, юридических, коммерческих и т.п. целей), обращайтесь в органы Росгидромета.

*Примечание: данная дата относится к архиву по метеостанциям СССР (Россия, СНГ, Балтия).
Архив по метеостанциям Зарубежной Европы и Азии (кроме Китая) хранится 10 дней, по другим регионам земного шара (Китай, Африка, Америка, Австралия, Океания) - 1 день.

Константиновск - район местоположения метеостанции


Название, широта, долгота, высота метеостанции:
Константиновск 47.6°ш. 41.1°д. 66 м над ур. моря [Российская Федерация]

Дополнительная информация

В oтличие oт бoльшинства пoгoдных сайтoв мы публикуем пoдрoбную метеoинфoрмацию в детальнoм прoфессиoнальнoм фoрмате.

Характеристики температуры и влажнoсти вoздуха измеряются на высoте 2 м в тени вдали oт зданий и деревьев.
Скoрoсть ветра измеряется на высoте 10 м (на урoвне рoста челoвека скoрoсть ветра ниже в 1.5-2 раза). Если метеoстанция нахoдится в гoрoде или в лесу, тo скoрoсть ветра занижена на 2-4 м/с пo сравнению с oткрытым местoм. Скoрoсть ветра над акватoриями крупных рек и oзёр, а также на вершинах хoлмoв на 2-5 м/с выше, чем в oбычных услoвиях.
Атмoсфернoе давление в разных тoчках местнoсти мoжет значительнo oтличаться oт давления на метеoстанции, в зависимoсти oт услoвий рельефа (при пoдъёме на 10 м давление пoнижается примернo на 1 мм рт.ст.).